Year,Month,Day,Hour,Minute,Value (Times are PST for windspeed in km/hr)
2010,10,25,00,00,0.00
2010,10,25,00,01,0.00
2010,10,25,00,02,0.00
2010,10,25,00,03,0.00
2010,10,25,00,04,0.00
2010,10,25,00,05,0.00
2010,10,25,00,06,0.00
2010,10,25,00,07,0.00
2010,10,25,00,08,0.00
2010,10,25,00,09,0.00
2010,10,25,00,10,0.00
2010,10,25,00,11,0.00
2010,10,25,00,12,0.00
2010,10,25,00,13,0.00
2010,10,25,00,14,0.00
2010,10,25,00,15,0.00
2010,10,25,00,16,0.50
2010,10,25,00,17,3.10
2010,10,25,00,18,3.70
2010,10,25,00,19,3.50
2010,10,25,00,20,3.60
2010,10,25,00,21,3.10
2010,10,25,00,22,1.60
2010,10,25,00,23,1.10
2010,10,25,00,24,1.40
2010,10,25,00,25,1.40
2010,10,25,00,26,2.40
2010,10,25,00,27,3.50
2010,10,25,00,28,2.30
2010,10,25,00,29,3.10
2010,10,25,00,30,3.20
2010,10,25,00,31,3.60
2010,10,25,00,32,3.70
2010,10,25,00,33,4.20
2010,10,25,00,34,3.00
2010,10,25,00,35,5.20
2010,10,25,00,36,4.60
2010,10,25,00,37,4.00
2010,10,25,00,38,3.30
2010,10,25,00,39,3.30
2010,10,25,00,40,3.90
2010,10,25,00,41,3.10
2010,10,25,00,42,2.90
2010,10,25,00,43,2.50
2010,10,25,00,44,2.70
2010,10,25,00,45,0.00
2010,10,25,00,46,0.10
2010,10,25,00,47,1.60
2010,10,25,00,48,2.30
2010,10,25,00,49,0.20
2010,10,25,00,50,0.00
2010,10,25,00,51,0.00
2010,10,25,00,52,0.00
2010,10,25,00,53,0.00
2010,10,25,00,54,0.00
2010,10,25,00,55,0.00
2010,10,25,00,56,0.00
2010,10,25,00,57,0.50
2010,10,25,00,58,1.80
2010,10,25,00,59,0.00
2010,10,25,01,00,0.00
2010,10,25,01,01,0.00
2010,10,25,01,02,0.00
2010,10,25,01,03,0.60
2010,10,25,01,04,0.20
2010,10,25,01,05,0.50
2010,10,25,01,06,1.40
2010,10,25,01,07,0.10
2010,10,25,01,08,0.50
2010,10,25,01,09,0.50
2010,10,25,01,10,0.30
2010,10,25,01,11,0.00
2010,10,25,01,12,0.00
2010,10,25,01,13,0.00
2010,10,25,01,14,0.00
2010,10,25,01,15,0.00
2010,10,25,01,16,0.00
2010,10,25,01,17,0.00
2010,10,25,01,18,0.10
2010,10,25,01,19,0.00
2010,10,25,01,20,0.40
2010,10,25,01,21,1.40
2010,10,25,01,22,2.10
2010,10,25,01,23,2.80
2010,10,25,01,24,2.90
2010,10,25,01,25,4.70
2010,10,25,01,26,1.60
2010,10,25,01,27,0.30
2010,10,25,01,28,0.00
2010,10,25,01,29,0.10
2010,10,25,01,30,1.90
2010,10,25,01,31,0.90
2010,10,25,01,32,0.00
2010,10,25,01,33,0.00
2010,10,25,01,34,0.00
2010,10,25,01,35,0.00
2010,10,25,01,36,0.00
2010,10,25,01,37,0.00
2010,10,25,01,38,0.00
2010,10,25,01,39,0.00
2010,10,25,01,40,0.60
2010,10,25,01,41,0.10
2010,10,25,01,42,0.50
2010,10,25,01,43,1.50
2010,10,25,01,44,1.60
2010,10,25,01,45,3.00
2010,10,25,01,46,3.20
2010,10,25,01,47,3.00
2010,10,25,01,48,3.60
2010,10,25,01,49,3.20
2010,10,25,01,50,3.20
2010,10,25,01,51,2.50
2010,10,25,01,52,1.20
2010,10,25,01,53,2.20
2010,10,25,01,54,1.30
2010,10,25,01,55,1.90
2010,10,25,01,56,0.20
2010,10,25,01,57,2.20
2010,10,25,01,58,4.60
2010,10,25,01,59,2.90
2010,10,25,02,00,3.00
2010,10,25,02,01,3.50
2010,10,25,02,02,4.10
2010,10,25,02,03,3.10
2010,10,25,02,04,2.40
2010,10,25,02,05,3.00
2010,10,25,02,06,2.90
2010,10,25,02,07,0.90
2010,10,25,02,08,2.60
2010,10,25,02,09,3.40
2010,10,25,02,10,1.70
2010,10,25,02,11,0.30
2010,10,25,02,12,1.10
2010,10,25,02,13,1.00
2010,10,25,02,14,3.60
2010,10,25,02,15,2.60
2010,10,25,02,16,1.50
2010,10,25,02,17,0.00
2010,10,25,02,18,0.00
2010,10,25,02,19,0.10
2010,10,25,02,20,1.60
2010,10,25,02,21,0.80
2010,10,25,02,22,0.80
2010,10,25,02,23,1.10
2010,10,25,02,24,4.30
2010,10,25,02,25,4.00
2010,10,25,02,26,3.70
2010,10,25,02,27,4.70
2010,10,25,02,28,3.80
2010,10,25,02,29,1.50
2010,10,25,02,30,0.00
2010,10,25,02,31,0.00
2010,10,25,02,32,1.30
2010,10,25,02,33,3.70
2010,10,25,02,34,2.30
2010,10,25,02,35,0.50
2010,10,25,02,36,2.30
2010,10,25,02,37,1.60
2010,10,25,02,38,1.50
2010,10,25,02,39,0.00
2010,10,25,02,40,0.90
2010,10,25,02,41,3.60
2010,10,25,02,42,3.10
2010,10,25,02,43,3.10
2010,10,25,02,44,3.00
2010,10,25,02,45,3.80
2010,10,25,02,46,4.80
2010,10,25,02,47,4.60
2010,10,25,02,48,4.60
2010,10,25,02,49,1.60
2010,10,25,02,50,0.60
2010,10,25,02,51,0.20
2010,10,25,02,52,1.90
2010,10,25,02,53,2.80
2010,10,25,02,54,4.40
2010,10,25,02,55,4.70
2010,10,25,02,56,4.20
2010,10,25,02,57,0.90
2010,10,25,02,58,0.00
2010,10,25,02,59,0.00
2010,10,25,03,00,0.10
2010,10,25,03,01,2.60
2010,10,25,03,02,2.70
2010,10,25,03,03,1.90
2010,10,25,03,04,0.20
2010,10,25,03,05,0.10
2010,10,25,03,06,1.70
2010,10,25,03,07,2.40
2010,10,25,03,08,1.50
2010,10,25,03,09,0.00
2010,10,25,03,10,0.00
2010,10,25,03,11,0.00
2010,10,25,03,12,0.00
2010,10,25,03,13,0.00
2010,10,25,03,14,0.00
2010,10,25,03,15,0.00
2010,10,25,03,16,0.00
2010,10,25,03,17,0.00
2010,10,25,03,18,0.00
2010,10,25,03,19,0.00
2010,10,25,03,20,0.00
2010,10,25,03,21,0.00
2010,10,25,03,22,0.50
2010,10,25,03,23,1.60
2010,10,25,03,24,2.00
2010,10,25,03,25,3.00
2010,10,25,03,26,3.00
2010,10,25,03,27,1.10
2010,10,25,03,28,1.90
2010,10,25,03,29,0.30
2010,10,25,03,30,0.00
2010,10,25,03,31,0.20
2010,10,25,03,32,0.10
2010,10,25,03,33,0.20
2010,10,25,03,34,0.00
2010,10,25,03,35,0.00
2010,10,25,03,36,0.10
2010,10,25,03,37,0.00
2010,10,25,03,38,0.00
2010,10,25,03,39,0.00
2010,10,25,03,40,0.00
2010,10,25,03,41,0.00
2010,10,25,03,42,0.00
2010,10,25,03,43,0.00
2010,10,25,03,44,0.00
2010,10,25,03,45,0.00
2010,10,25,03,46,0.00
2010,10,25,03,47,0.00
2010,10,25,03,48,0.00
2010,10,25,03,49,0.00
2010,10,25,03,50,0.00
2010,10,25,03,51,0.00
2010,10,25,03,52,0.00
2010,10,25,03,53,0.00
2010,10,25,03,54,0.00
2010,10,25,03,55,0.00
2010,10,25,03,56,0.00
2010,10,25,03,57,0.00
2010,10,25,03,58,0.00
2010,10,25,03,59,0.00
2010,10,25,04,00,0.00
2010,10,25,04,01,0.00
2010,10,25,04,02,0.00
2010,10,25,04,03,0.00
2010,10,25,04,04,0.00
2010,10,25,04,05,0.00
2010,10,25,04,06,0.00
2010,10,25,04,07,0.00
2010,10,25,04,08,0.00
2010,10,25,04,09,0.00
2010,10,25,04,10,0.00
2010,10,25,04,11,0.00
2010,10,25,04,12,0.00
2010,10,25,04,13,0.60
2010,10,25,04,14,0.90
2010,10,25,04,15,0.10
2010,10,25,04,16,0.10
2010,10,25,04,17,0.20
2010,10,25,04,18,0.10
2010,10,25,04,19,0.00
2010,10,25,04,20,0.00
2010,10,25,04,21,0.00
2010,10,25,04,22,2.30
2010,10,25,04,23,2.60
2010,10,25,04,24,3.10
2010,10,25,04,25,3.00
2010,10,25,04,26,4.00
2010,10,25,04,27,4.20
2010,10,25,04,28,3.40
2010,10,25,04,29,3.30
2010,10,25,04,30,3.50
2010,10,25,04,31,3.50
2010,10,25,04,32,2.50
2010,10,25,04,33,2.70
2010,10,25,04,34,0.90
2010,10,25,04,35,2.00
2010,10,25,04,36,2.60
2010,10,25,04,37,0.30
2010,10,25,04,38,0.00
2010,10,25,04,39,0.00
2010,10,25,04,40,0.00
2010,10,25,04,41,0.20
2010,10,25,04,42,0.00
2010,10,25,04,43,0.10
2010,10,25,04,44,1.50
2010,10,25,04,45,2.70
2010,10,25,04,46,2.70
2010,10,25,04,47,0.00
2010,10,25,04,48,0.50
2010,10,25,04,49,2.00
2010,10,25,04,50,6.00
2010,10,25,04,51,5.10
2010,10,25,04,52,4.10
2010,10,25,04,53,6.40
2010,10,25,04,54,7.10
2010,10,25,04,55,4.90
2010,10,25,04,56,4.60
2010,10,25,04,57,4.70
2010,10,25,04,58,4.70
2010,10,25,04,59,5.10
2010,10,25,05,00,4.10
2010,10,25,05,01,2.40
2010,10,25,05,02,2.30
2010,10,25,05,03,2.00
2010,10,25,05,04,1.00
2010,10,25,05,05,0.70
2010,10,25,05,06,0.00
2010,10,25,05,07,0.10
2010,10,25,05,08,0.00
2010,10,25,05,09,0.00
2010,10,25,05,10,0.00
2010,10,25,05,11,0.10
2010,10,25,05,12,0.00
2010,10,25,05,13,0.20
2010,10,25,05,14,1.30
2010,10,25,05,15,1.60
2010,10,25,05,16,2.30
2010,10,25,05,17,0.50
2010,10,25,05,18,0.10
2010,10,25,05,19,0.10
2010,10,25,05,20,0.00
2010,10,25,05,21,0.00
2010,10,25,05,22,0.00
2010,10,25,05,23,0.00
2010,10,25,05,24,0.00
2010,10,25,05,25,0.00
2010,10,25,05,26,1.50
2010,10,25,05,27,0.40
2010,10,25,05,28,0.00
2010,10,25,05,29,0.00
2010,10,25,05,30,1.50
2010,10,25,05,31,0.70
2010,10,25,05,32,0.00
2010,10,25,05,33,0.00
2010,10,25,05,34,0.60
2010,10,25,05,35,1.80
2010,10,25,05,36,0.20
2010,10,25,05,37,2.10
2010,10,25,05,38,1.00
2010,10,25,05,39,0.00
2010,10,25,05,40,0.00
2010,10,25,05,41,0.00
2010,10,25,05,42,0.00
2010,10,25,05,43,0.30
2010,10,25,05,44,0.00
2010,10,25,05,45,0.00
2010,10,25,05,46,1.20
2010,10,25,05,47,0.00
2010,10,25,05,48,0.00
2010,10,25,05,49,0.00
2010,10,25,05,50,1.50
2010,10,25,05,51,2.60
2010,10,25,05,52,0.80
2010,10,25,05,53,0.00
2010,10,25,05,54,0.00
2010,10,25,05,55,0.00
2010,10,25,05,56,0.00
2010,10,25,05,57,0.00
2010,10,25,05,58,0.00
2010,10,25,05,59,0.00
2010,10,25,06,00,0.70
2010,10,25,06,01,2.00
2010,10,25,06,02,3.60
2010,10,25,06,03,3.90
2010,10,25,06,04,3.90
2010,10,25,06,05,6.00
2010,10,25,06,06,6.10
2010,10,25,06,07,7.20
2010,10,25,06,08,8.60
2010,10,25,06,09,7.70
2010,10,25,06,10,5.50
2010,10,25,06,11,7.80
2010,10,25,06,12,7.50
2010,10,25,06,13,8.10
2010,10,25,06,14,7.00
2010,10,25,06,15,4.70
2010,10,25,06,16,5.90
2010,10,25,06,17,6.30
2010,10,25,06,18,7.20
2010,10,25,06,19,9.20
2010,10,25,06,20,9.70
2010,10,25,06,21,13.00
2010,10,25,06,22,9.60
2010,10,25,06,23,8.90
2010,10,25,06,24,7.60
2010,10,25,06,25,8.10
2010,10,25,06,26,10.10
2010,10,25,06,27,12.60
2010,10,25,06,28,7.20
2010,10,25,06,29,4.90
2010,10,25,06,30,9.60
2010,10,25,06,31,4.70
2010,10,25,06,32,6.50
2010,10,25,06,33,7.90
2010,10,25,06,34,10.60
2010,10,25,06,35,8.20
2010,10,25,06,36,7.10
2010,10,25,06,37,5.50
2010,10,25,06,38,5.30
2010,10,25,06,39,4.30
2010,10,25,06,40,6.10
2010,10,25,06,41,7.50
2010,10,25,06,42,6.70
2010,10,25,06,43,5.70
2010,10,25,06,44,6.40
2010,10,25,06,45,5.30
2010,10,25,06,46,6.20
2010,10,25,06,47,6.30
2010,10,25,06,48,9.10
2010,10,25,06,49,6.80
2010,10,25,06,50,5.80
2010,10,25,06,51,4.90
2010,10,25,06,52,6.30
2010,10,25,06,53,5.90
2010,10,25,06,54,7.10
2010,10,25,06,55,4.10
2010,10,25,06,56,5.60
2010,10,25,06,57,6.90
2010,10,25,06,58,5.80
2010,10,25,06,59,8.70
2010,10,25,07,00,11.20
2010,10,25,07,01,9.00
2010,10,25,07,02,5.60
2010,10,25,07,03,2.30
2010,10,25,07,04,1.10
2010,10,25,07,05,2.20
2010,10,25,07,06,2.20
2010,10,25,07,07,3.50
2010,10,25,07,08,3.40
2010,10,25,07,09,2.30
2010,10,25,07,10,3.20
2010,10,25,07,11,3.10
2010,10,25,07,12,6.90
2010,10,25,07,13,6.30
2010,10,25,07,14,6.60
2010,10,25,07,15,2.90
2010,10,25,07,16,3.50
2010,10,25,07,17,1.80
2010,10,25,07,18,0.60
2010,10,25,07,19,0.00
2010,10,25,07,20,5.90
2010,10,25,07,21,3.20
2010,10,25,07,22,1.00
2010,10,25,07,23,0.00
2010,10,25,07,24,0.00
2010,10,25,07,25,0.00
2010,10,25,07,26,0.00
2010,10,25,07,27,0.00
2010,10,25,07,28,0.50
2010,10,25,07,29,2.40
2010,10,25,07,30,2.80
2010,10,25,07,31,2.80
2010,10,25,07,32,1.40
2010,10,25,07,33,0.40
2010,10,25,07,34,0.00
2010,10,25,07,35,1.20
2010,10,25,07,36,4.70
2010,10,25,07,37,3.50
2010,10,25,07,38,0.50
2010,10,25,07,39,2.00
2010,10,25,07,40,1.60
2010,10,25,07,41,2.30
2010,10,25,07,42,3.00
2010,10,25,07,43,2.60
2010,10,25,07,44,3.20
2010,10,25,07,45,7.10
2010,10,25,07,46,5.80
2010,10,25,07,47,6.80
2010,10,25,07,48,9.70
2010,10,25,07,49,8.70
2010,10,25,07,50,7.60
2010,10,25,07,51,5.40
2010,10,25,07,52,6.60
2010,10,25,07,53,6.50
2010,10,25,07,54,9.80
2010,10,25,07,55,7.60
2010,10,25,07,56,6.20
2010,10,25,07,57,6.80
2010,10,25,07,58,7.40
2010,10,25,07,59,7.40
2010,10,25,08,00,6.40
2010,10,25,08,01,6.90
2010,10,25,08,02,4.10
2010,10,25,08,03,6.30
2010,10,25,08,04,6.80
2010,10,25,08,05,5.10
2010,10,25,08,06,8.50
2010,10,25,08,07,9.80
2010,10,25,08,08,7.20
2010,10,25,08,09,5.80
2010,10,25,08,10,7.20
2010,10,25,08,11,7.20
2010,10,25,08,12,9.10
2010,10,25,08,13,6.80
2010,10,25,08,14,11.70
2010,10,25,08,15,10.90
2010,10,25,08,16,8.80
2010,10,25,08,17,12.50
2010,10,25,08,18,6.80
2010,10,25,08,19,7.10
2010,10,25,08,20,9.30
2010,10,25,08,21,10.60
2010,10,25,08,22,9.70
2010,10,25,08,23,15.80
2010,10,25,08,24,10.20
2010,10,25,08,25,11.60
2010,10,25,08,26,9.30
2010,10,25,08,27,10.00
2010,10,25,08,28,11.50
2010,10,25,08,29,12.70
2010,10,25,08,30,10.60
2010,10,25,08,31,14.20
2010,10,25,08,32,12.70
2010,10,25,08,33,10.40
2010,10,25,08,34,13.80
2010,10,25,08,35,8.70
2010,10,25,08,36,9.90
2010,10,25,08,37,14.40
2010,10,25,08,38,13.80
2010,10,25,08,39,9.30
2010,10,25,08,40,13.30
2010,10,25,08,41,12.00
2010,10,25,08,42,12.70
2010,10,25,08,43,11.50
2010,10,25,08,44,15.20
2010,10,25,08,45,19.50
2010,10,25,08,46,16.80
2010,10,25,08,47,20.00
2010,10,25,08,48,13.90
2010,10,25,08,49,15.40
2010,10,25,08,50,13.20
2010,10,25,08,51,15.20
2010,10,25,08,52,16.10
2010,10,25,08,53,18.00
2010,10,25,08,54,17.90
2010,10,25,08,55,14.90
2010,10,25,08,56,14.50
2010,10,25,08,57,9.80
2010,10,25,08,58,12.00
2010,10,25,08,59,18.30
2010,10,25,09,00,12.90
2010,10,25,09,01,9.20
2010,10,25,09,02,7.60
2010,10,25,09,03,11.20
2010,10,25,09,04,11.40
2010,10,25,09,05,16.30
2010,10,25,09,06,14.10
2010,10,25,09,07,12.10
2010,10,25,09,08,9.10
2010,10,25,09,09,13.00
2010,10,25,09,10,15.50
2010,10,25,09,11,16.50
2010,10,25,09,12,14.70
2010,10,25,09,13,16.00
2010,10,25,09,14,8.10
2010,10,25,09,15,17.30
2010,10,25,09,16,5.80
2010,10,25,09,17,8.30
2010,10,25,09,18,11.30
2010,10,25,09,19,14.20
2010,10,25,09,20,13.50
2010,10,25,09,21,13.60
2010,10,25,09,22,10.90
2010,10,25,09,23,13.60
2010,10,25,09,24,9.70
2010,10,25,09,25,11.10
2010,10,25,09,26,9.40
2010,10,25,09,27,12.30
2010,10,25,09,28,18.10
2010,10,25,09,29,16.20
2010,10,25,09,30,11.40
2010,10,25,09,31,7.20
2010,10,25,09,32,11.70
2010,10,25,09,33,15.20
2010,10,25,09,34,14.00
2010,10,25,09,35,11.70
2010,10,25,09,36,8.10
2010,10,25,09,37,11.00
2010,10,25,09,38,15.60
2010,10,25,09,39,14.70
2010,10,25,09,40,13.20
2010,10,25,09,41,16.70
2010,10,25,09,42,14.50
2010,10,25,09,43,11.30
2010,10,25,09,44,11.60
2010,10,25,09,45,12.00
2010,10,25,09,46,11.30
2010,10,25,09,47,10.10
2010,10,25,09,48,14.20
2010,10,25,09,49,12.20
2010,10,25,09,50,13.50
2010,10,25,09,51,9.20
2010,10,25,09,52,13.80
2010,10,25,09,53,9.60
2010,10,25,09,54,10.50
2010,10,25,09,55,8.20
2010,10,25,09,56,15.20
2010,10,25,09,57,11.90
2010,10,25,09,58,13.80
2010,10,25,09,59,16.10
2010,10,25,10,00,10.40
2010,10,25,10,01,11.20
2010,10,25,10,02,13.40
2010,10,25,10,03,10.50
2010,10,25,10,04,11.80
2010,10,25,10,05,13.90
2010,10,25,10,06,9.70
2010,10,25,10,07,8.40
2010,10,25,10,08,10.60
2010,10,25,10,09,8.20
2010,10,25,10,10,8.90
2010,10,25,10,11,7.70
2010,10,25,10,12,9.60
2010,10,25,10,13,14.00
2010,10,25,10,14,15.30
2010,10,25,10,15,11.60
2010,10,25,10,16,11.50
2010,10,25,10,17,10.50
2010,10,25,10,18,12.60
2010,10,25,10,19,12.10
2010,10,25,10,20,12.70
2010,10,25,10,21,10.50
2010,10,25,10,22,9.70
2010,10,25,10,23,8.60
2010,10,25,10,24,17.80
2010,10,25,10,25,18.60
2010,10,25,10,26,10.30
2010,10,25,10,27,11.10
2010,10,25,10,28,15.00
2010,10,25,10,29,12.00
2010,10,25,10,30,15.80
2010,10,25,10,31,16.50
2010,10,25,10,32,18.40
2010,10,25,10,33,17.10
2010,10,25,10,34,12.40
2010,10,25,10,35,15.00
2010,10,25,10,36,12.30
2010,10,25,10,37,15.60
2010,10,25,10,38,17.20
2010,10,25,10,39,14.80
2010,10,25,10,40,16.60
2010,10,25,10,41,12.30
2010,10,25,10,42,14.20
2010,10,25,10,43,17.30
2010,10,25,10,44,15.90
2010,10,25,10,45,16.10
2010,10,25,10,46,14.20
2010,10,25,10,47,17.10
2010,10,25,10,48,16.90
2010,10,25,10,49,11.50
2010,10,25,10,50,17.90
2010,10,25,10,51,10.90
2010,10,25,10,52,10.80
2010,10,25,10,53,16.00
2010,10,25,10,54,15.40
2010,10,25,10,55,14.50
2010,10,25,10,56,12.10
2010,10,25,10,57,14.70
2010,10,25,10,58,15.00
2010,10,25,10,59,15.20
2010,10,25,11,00,10.70
2010,10,25,11,01,7.80
2010,10,25,11,02,20.00
2010,10,25,11,03,15.00
2010,10,25,11,04,12.00
2010,10,25,11,05,13.70
2010,10,25,11,06,11.70
2010,10,25,11,07,13.90
2010,10,25,11,08,13.10
2010,10,25,11,09,11.90
2010,10,25,11,10,8.90
2010,10,25,11,11,9.50
2010,10,25,11,12,13.40
2010,10,25,11,13,9.80
2010,10,25,11,14,12.00
2010,10,25,11,15,11.00
2010,10,25,11,16,9.20
2010,10,25,11,17,13.30
2010,10,25,11,18,11.30
2010,10,25,11,19,7.60
2010,10,25,11,20,9.70
2010,10,25,11,21,7.20
2010,10,25,11,22,14.50
2010,10,25,11,23,11.70
2010,10,25,11,24,8.20
2010,10,25,11,25,8.10
2010,10,25,11,26,9.90
2010,10,25,11,27,11.70
2010,10,25,11,28,9.60
2010,10,25,11,29,10.20
2010,10,25,11,30,10.00
2010,10,25,11,31,10.90
2010,10,25,11,32,12.90
2010,10,25,11,33,9.30
2010,10,25,11,34,7.30
2010,10,25,11,35,8.20
2010,10,25,11,36,10.70
2010,10,25,11,37,9.10
2010,10,25,11,38,13.00
2010,10,25,11,39,12.50
2010,10,25,11,40,14.00
2010,10,25,11,41,13.90
2010,10,25,11,42,9.60
2010,10,25,11,43,9.90
2010,10,25,11,44,10.80
2010,10,25,11,45,10.20
2010,10,25,11,46,10.10
2010,10,25,11,47,10.80
2010,10,25,11,48,9.20
2010,10,25,11,49,13.00
2010,10,25,11,50,12.20
2010,10,25,11,51,7.70
2010,10,25,11,52,7.60
2010,10,25,11,53,10.30
2010,10,25,11,54,8.90
2010,10,25,11,55,10.80
2010,10,25,11,56,15.40
2010,10,25,11,57,13.40
2010,10,25,11,58,14.40
2010,10,25,11,59,10.20
2010,10,25,12,00,9.20
2010,10,25,12,01,9.30
2010,10,25,12,02,10.80
2010,10,25,12,03,8.90
2010,10,25,12,04,10.30
2010,10,25,12,05,8.40
2010,10,25,12,06,8.80
2010,10,25,12,07,8.40
2010,10,25,12,08,13.60
2010,10,25,12,09,10.80
2010,10,25,12,10,10.60
2010,10,25,12,11,8.60
2010,10,25,12,12,7.60
2010,10,25,12,13,10.90
2010,10,25,12,14,12.40
2010,10,25,12,15,10.10
2010,10,25,12,16,11.10
2010,10,25,12,17,11.90
2010,10,25,12,18,10.20
2010,10,25,12,19,16.90
2010,10,25,12,20,15.50
2010,10,25,12,21,16.00
2010,10,25,12,22,11.80
2010,10,25,12,23,11.30
2010,10,25,12,24,11.40
2010,10,25,12,25,16.00
2010,10,25,12,26,15.20
2010,10,25,12,27,12.60
2010,10,25,12,28,19.10
2010,10,25,12,29,12.90
2010,10,25,12,30,11.80
2010,10,25,12,31,17.80
2010,10,25,12,32,19.80
2010,10,25,12,33,19.90
2010,10,25,12,34,12.10
2010,10,25,12,35,13.20
2010,10,25,12,36,16.10
2010,10,25,12,37,18.70
2010,10,25,12,38,10.90
2010,10,25,12,39,14.50
2010,10,25,12,40,11.10
2010,10,25,12,41,11.80
2010,10,25,12,42,13.60
2010,10,25,12,43,17.10
2010,10,25,12,44,15.40
2010,10,25,12,45,15.90
2010,10,25,12,46,18.30
2010,10,25,12,47,18.10
2010,10,25,12,48,13.80
2010,10,25,12,49,19.80
2010,10,25,12,50,9.70
2010,10,25,12,51,20.20
2010,10,25,12,52,15.20
2010,10,25,12,53,12.20
2010,10,25,12,54,17.50
2010,10,25,12,55,16.50
2010,10,25,12,56,14.20
2010,10,25,12,57,16.30
2010,10,25,12,58,12.50
2010,10,25,12,59,10.50
2010,10,25,13,00,16.70
2010,10,25,13,01,20.00
2010,10,25,13,02,21.90
2010,10,25,13,03,15.90
2010,10,25,13,04,18.00
2010,10,25,13,05,12.50
2010,10,25,13,06,14.70
2010,10,25,13,07,7.90
2010,10,25,13,08,11.00
2010,10,25,13,09,16.30
2010,10,25,13,10,17.40
2010,10,25,13,11,21.80
2010,10,25,13,12,19.30
2010,10,25,13,13,13.20
2010,10,25,13,14,13.10
2010,10,25,13,15,15.20
2010,10,25,13,16,17.30
2010,10,25,13,17,12.50
2010,10,25,13,18,10.90
2010,10,25,13,19,15.60
2010,10,25,13,20,13.80
2010,10,25,13,21,16.20
2010,10,25,13,22,15.10
2010,10,25,13,23,13.80
2010,10,25,13,24,15.20
2010,10,25,13,25,9.20
2010,10,25,13,26,15.60
2010,10,25,13,27,15.90
2010,10,25,13,28,14.70
2010,10,25,13,29,13.80
2010,10,25,13,30,16.30
2010,10,25,13,31,16.40
2010,10,25,13,32,15.40
2010,10,25,13,33,14.70
2010,10,25,13,34,14.30
2010,10,25,13,35,14.60
2010,10,25,13,36,14.10
2010,10,25,13,37,19.60
2010,10,25,13,38,13.30
2010,10,25,13,39,19.60
2010,10,25,13,40,18.60
2010,10,25,13,41,17.40
2010,10,25,13,42,17.30
2010,10,25,13,43,12.60
2010,10,25,13,44,12.20
2010,10,25,13,45,10.50
2010,10,25,13,46,16.10
2010,10,25,13,47,18.20
2010,10,25,13,48,16.40
2010,10,25,13,49,11.80
2010,10,25,13,50,16.90
2010,10,25,13,51,16.70
2010,10,25,13,52,18.90
2010,10,25,13,53,14.70
2010,10,25,13,54,10.20
2010,10,25,13,55,15.00
2010,10,25,13,56,21.60
2010,10,25,13,57,16.70
2010,10,25,13,58,12.00
2010,10,25,13,59,17.50
2010,10,25,14,00,15.50
2010,10,25,14,01,13.50
2010,10,25,14,02,22.90
2010,10,25,14,03,19.50
2010,10,25,14,04,13.50
2010,10,25,14,05,14.10
2010,10,25,14,06,12.20
2010,10,25,14,07,10.90
2010,10,25,14,08,14.90
2010,10,25,14,09,16.20
2010,10,25,14,10,13.10
2010,10,25,14,11,15.00
2010,10,25,14,12,13.70
2010,10,25,14,13,12.80
2010,10,25,14,14,16.80
2010,10,25,14,15,17.30
2010,10,25,14,16,15.70
2010,10,25,14,17,15.30
2010,10,25,14,18,17.40
2010,10,25,14,19,15.50
2010,10,25,14,20,13.60
2010,10,25,14,21,12.10
2010,10,25,14,22,8.60
2010,10,25,14,23,8.70
2010,10,25,14,24,13.60
2010,10,25,14,25,18.40
2010,10,25,14,26,10.10
2010,10,25,14,27,13.90
2010,10,25,14,28,18.40
2010,10,25,14,29,12.90
2010,10,25,14,30,12.40
2010,10,25,14,31,10.50
2010,10,25,14,32,12.50
2010,10,25,14,33,14.20
2010,10,25,14,34,12.00
2010,10,25,14,35,17.80
2010,10,25,14,36,18.40
2010,10,25,14,37,16.70
2010,10,25,14,38,18.70
2010,10,25,14,39,7.60
2010,10,25,14,40,16.80
2010,10,25,14,41,11.10
2010,10,25,14,42,19.90
2010,10,25,14,43,12.60
2010,10,25,14,44,17.80
2010,10,25,14,45,21.60
2010,10,25,14,46,13.30
2010,10,25,14,47,18.80
2010,10,25,14,48,17.30
2010,10,25,14,49,14.20
2010,10,25,14,50,9.20
2010,10,25,14,51,11.70
2010,10,25,14,52,14.10
2010,10,25,14,53,18.50
2010,10,25,14,54,20.60
2010,10,25,14,55,24.10
2010,10,25,14,56,15.30
2010,10,25,14,57,14.70
2010,10,25,14,58,12.80
2010,10,25,14,59,23.20
2010,10,25,15,00,22.40
2010,10,25,15,01,20.50
2010,10,25,15,02,17.40
2010,10,25,15,03,16.90
2010,10,25,15,04,15.50
2010,10,25,15,05,19.40
2010,10,25,15,06,15.10
2010,10,25,15,07,15.50
2010,10,25,15,08,17.90
2010,10,25,15,09,14.90
2010,10,25,15,10,19.60
2010,10,25,15,11,19.50
2010,10,25,15,12,18.10
2010,10,25,15,13,17.90
2010,10,25,15,14,14.30
2010,10,25,15,15,11.30
2010,10,25,15,16,22.20
2010,10,25,15,17,18.70
2010,10,25,15,18,16.60
2010,10,25,15,19,18.50
2010,10,25,15,20,17.70
2010,10,25,15,21,12.40
2010,10,25,15,22,14.60
2010,10,25,15,23,14.20
2010,10,25,15,24,13.60
2010,10,25,15,25,18.00
2010,10,25,15,26,19.00
2010,10,25,15,27,15.10
2010,10,25,15,28,21.90
2010,10,25,15,29,28.60
2010,10,25,15,30,17.10
2010,10,25,15,31,18.50
2010,10,25,15,32,23.40
2010,10,25,15,33,20.60
2010,10,25,15,34,18.50
2010,10,25,15,35,20.40
2010,10,25,15,36,21.20
2010,10,25,15,37,17.90
2010,10,25,15,38,19.00
2010,10,25,15,39,27.20
2010,10,25,15,40,17.60
2010,10,25,15,41,25.40
2010,10,25,15,42,22.90
2010,10,25,15,43,15.40
2010,10,25,15,44,16.60
2010,10,25,15,45,16.10
2010,10,25,15,46,16.30
2010,10,25,15,47,20.10
2010,10,25,15,48,21.80
2010,10,25,15,49,22.00
2010,10,25,15,50,22.90
2010,10,25,15,51,18.90
2010,10,25,15,52,16.70
2010,10,25,15,53,25.40
2010,10,25,15,54,16.40
2010,10,25,15,55,21.20
2010,10,25,15,56,23.20
2010,10,25,15,57,21.40
2010,10,25,15,58,16.80
2010,10,25,15,59,23.70
2010,10,25,16,00,20.00
2010,10,25,16,01,20.90
2010,10,25,16,02,27.80
2010,10,25,16,03,24.60
2010,10,25,16,04,23.20
2010,10,25,16,05,17.30
2010,10,25,16,06,18.30
2010,10,25,16,07,21.00
2010,10,25,16,08,21.60
2010,10,25,16,09,15.70
2010,10,25,16,10,21.80
2010,10,25,16,11,20.10
2010,10,25,16,12,18.50
2010,10,25,16,13,24.10
2010,10,25,16,14,20.10
2010,10,25,16,15,19.90
2010,10,25,16,16,22.90
2010,10,25,16,17,19.10
2010,10,25,16,18,18.80
2010,10,25,16,19,14.20
2010,10,25,16,20,20.20
2010,10,25,16,21,23.70
2010,10,25,16,22,21.40
2010,10,25,16,23,16.60
2010,10,25,16,24,24.50
2010,10,25,16,25,19.00
2010,10,25,16,26,20.60
2010,10,25,16,27,15.00
2010,10,25,16,28,22.30
2010,10,25,16,29,19.30
2010,10,25,16,30,20.10
2010,10,25,16,31,24.90
2010,10,25,16,32,19.70
2010,10,25,16,33,23.90
2010,10,25,16,34,15.50
2010,10,25,16,35,21.40
2010,10,25,16,36,22.90
2010,10,25,16,37,19.10
2010,10,25,16,38,24.50
2010,10,25,16,39,19.30
2010,10,25,16,40,21.20
2010,10,25,16,41,21.60
2010,10,25,16,42,20.70
2010,10,25,16,43,17.70
2010,10,25,16,44,21.30
2010,10,25,16,45,25.90
2010,10,25,16,46,23.60
2010,10,25,16,47,23.40
2010,10,25,16,48,20.80
2010,10,25,16,49,21.30
2010,10,25,16,50,19.20
2010,10,25,16,51,25.50
2010,10,25,16,52,19.60
2010,10,25,16,53,23.30
2010,10,25,16,54,19.80
2010,10,25,16,55,23.90
2010,10,25,16,56,19.70
2010,10,25,16,57,19.90
2010,10,25,16,58,21.50
2010,10,25,16,59,22.90
2010,10,25,17,00,16.20
2010,10,25,17,01,18.30
2010,10,25,17,02,17.40
2010,10,25,17,03,18.30
2010,10,25,17,04,22.10
2010,10,25,17,05,21.50
2010,10,25,17,06,17.50
2010,10,25,17,07,19.70
2010,10,25,17,08,21.80
2010,10,25,17,09,19.90
2010,10,25,17,10,19.60
2010,10,25,17,11,20.00
2010,10,25,17,12,20.00
2010,10,25,17,13,23.10
2010,10,25,17,14,22.60
2010,10,25,17,15,12.50
2010,10,25,17,16,17.80
2010,10,25,17,17,16.30
2010,10,25,17,18,17.60
2010,10,25,17,19,20.70
2010,10,25,17,20,8.50
2010,10,25,17,21,13.10
2010,10,25,17,22,10.80
2010,10,25,17,23,15.00
2010,10,25,17,24,14.90
2010,10,25,17,25,16.00
2010,10,25,17,26,19.50
2010,10,25,17,27,15.20
2010,10,25,17,28,9.40
2010,10,25,17,29,6.90
2010,10,25,17,30,8.80
2010,10,25,17,31,14.10
2010,10,25,17,32,14.90
2010,10,25,17,33,9.60
2010,10,25,17,34,12.80
2010,10,25,17,35,10.80
2010,10,25,17,36,12.40
2010,10,25,17,37,13.40
2010,10,25,17,38,13.10
2010,10,25,17,39,10.00
2010,10,25,17,40,13.30
2010,10,25,17,41,11.70
2010,10,25,17,42,12.10
2010,10,25,17,43,12.40